Watersmeet, MI

8:43 PM CST on January 20, 2017 (GMT -0600)
Kings Land O'Lakes

Weather History for KLNL - February, 2014

Change the Weather History Date:

Monday, February 24, 2014

  Actual Average (KEGV) Record (KEGV)
Temperature  
Mean Temperature 1 °F -  
Max Temperature 13 °F 28 °F 41 °F (1998)
Min Temperature -11 °F 7 °F -14 °F (2006)
Degree Days  
Heating Degree Days 64    
Moisture  
Dew Point -3 °F    
Average Humidity 73    
Maximum Humidity 88    
Minimum Humidity 58    
Precipitation  
Precipitation 0.00 in - - ()
Sea Level Pressure  
Sea Level Pressure 30.03 in    
Wind  
Wind Speed 7 mph (WNW)    
Max Wind Speed 13 mph    
Max Gust Speed 21 mph    
Visibility 9 miles    
Events Snow    
Averages and records for this station are not official NWS values.
T = Trace of Precipitation, MM = Missing Value Source: NWS Daily Summary

Daily Weather History Graph

Daily Weather History Graph

Search for Another Location

Airport or City:

Trip Planner

Search our weather history database for the weather conditions in past years. The results will help you decide how hot, cold, wet, or windy it might be!

Date:

Astronomy

Feb. 24, 2014 Rise Set
Actual Time 6:44 AM CST 5:36 PM CST
Civil Twilight 6:14 AM CST 6:06 PM CST
Nautical Twilight 5:39 AM CST 6:41 PM CST
Astronomical Twilight 5:05 AM CST 7:15 PM CST
Moon 2:53 AM CST (2/24) 12:26 PM CST (2/24)
Length of Visible Light 11h 51m
Length of Day
10h 51m
Waning Crescent, 28% of the Moon is Illuminated
Feb 24
Waning Crescent
Mar 1
New
Mar 8
First Quarter
Mar 16
Full
Mar 23
Last Quarter

Hourly Weather History & Observations

Time (CST) Temp. Windchill Dew Point Humidity Pressure Visibility Wind Dir Wind Speed Gust Speed Precip Events Conditions
12:15 AM 8.6 °F -1.3 °F 3.7 °F 81% 29.95 in 5.0 mi NW 5.8 mph - N/A Snow Light Snow
12:35 AM 8.6 °F -1.3 °F 4.5 °F 83% 29.95 in 2.0 mi West 5.8 mph - N/A Snow Light Snow
12:55 AM 8.2 °F -6.8 °F 3.2 °F 80% 29.95 in 4.0 mi WNW 11.5 mph 18.4 mph N/A Snow Light Snow
1:15 AM 7.2 °F -6.4 °F 1.9 °F 79% 29.95 in 7.0 mi WNW 9.2 mph 19.6 mph N/A   Mostly Cloudy
1:35 AM 6.8 °F -3.5 °F 1.6 °F 79% 29.96 in 7.0 mi West 5.8 mph - N/A Snow Light Snow
1:55 AM 6.1 °F -6.8 °F 1.2 °F 80% 29.96 in 10.0 mi WNW 8.1 mph 16.1 mph N/A   Scattered Clouds
2:15 AM 5.9 °F -7.0 °F 0.5 °F 78% 29.96 in 10.0 mi WNW 8.1 mph 17.3 mph N/A   Scattered Clouds
2:35 AM 5.5 °F -6.3 °F 0.3 °F 79% 29.96 in 10.0 mi WNW 6.9 mph - N/A   Clear
2:55 AM 5.0 °F -8.1 °F -0.0 °F 80% 29.96 in 10.0 mi WNW 8.1 mph - N/A   Clear
3:15 AM 5.0 °F -6.9 °F -0.4 °F 78% 29.96 in 10.0 mi West 6.9 mph - N/A   Clear
3:35 AM 5.0 °F -8.1 °F -0.0 °F 80% 29.96 in 5.0 mi West 8.1 mph - N/A Snow Light Snow
3:50 AM 4.8 °F -8.3 °F -0.4 °F 79% 29.97 in 5.0 mi West 8.1 mph - N/A Snow Light Snow
4:15 AM 4.3 °F -6.5 °F -0.6 °F 80% 29.97 in 7.0 mi WNW 5.8 mph - N/A Snow Light Snow
4:35 AM 4.1 °F -9.2 °F -1.1 °F 79% 29.97 in 5.0 mi WNW 8.1 mph - N/A Snow Light Snow
4:55 AM 4.3 °F -7.8 °F -1.3 °F 78% 29.98 in 7.0 mi West 6.9 mph - N/A   Mostly Cloudy
5:04 AM 3.2 °F -11.3 °F -0.4 °F 85% 29.98 in 10.0 mi WNW 9.2 mph - N/A   Mostly Cloudy
5:15 AM 4.1 °F -5.1 °F -1.5 °F 78% 29.98 in 10.0 mi West 4.6 mph - N/A   Mostly Cloudy
5:27 AM 3.2 °F -7.8 °F -2.2 °F 78% 29.98 in 5.0 mi West 5.8 mph - N/A Snow Light Snow
5:35 AM 3.7 °F -9.6 °F -1.7 °F 78% 29.98 in 5.0 mi WNW 8.1 mph - N/A Snow Light Snow
5:47 AM 3.2 °F -11.3 °F -2.2 °F 78% 29.98 in 5.0 mi WNW 9.2 mph - N/A Snow Light Snow
5:55 AM 3.6 °F -9.8 °F -2.2 °F 77% 29.98 in 7.0 mi West 8.1 mph - N/A Snow Light Snow
6:08 AM 3.2 °F -11.3 °F -2.2 °F 78% 29.98 in 10.0 mi WNW 9.2 mph 18.4 mph N/A Snow Light Snow
6:15 AM 3.2 °F -10.3 °F -2.6 °F 77% 29.98 in 10.0 mi WNW 8.1 mph 18.4 mph N/A   Scattered Clouds
6:35 AM 2.7 °F -9.7 °F -3.1 °F 77% 29.99 in 10.0 mi WNW 6.9 mph 17.3 mph N/A   Scattered Clouds
6:55 AM 2.3 °F -11.4 °F -3.5 °F 77% 29.99 in 10.0 mi WNW 8.1 mph - N/A   Scattered Clouds
7:15 AM 1.9 °F -9.2 °F -3.5 °F 78% 30.00 in 10.0 mi WNW 5.8 mph - N/A   Mostly Cloudy
7:35 AM 2.3 °F -10.2 °F -3.5 °F 77% 30.00 in 10.0 mi WNW 6.9 mph - N/A   Scattered Clouds
7:55 AM 3.0 °F -10.5 °F -3.5 °F 74% 30.01 in 10.0 mi WNW 8.1 mph - N/A   Clear
8:15 AM 3.6 °F -11.8 °F -3.8 °F 71% 30.01 in 10.0 mi WNW 10.4 mph - N/A   Clear
8:30 AM 4.1 °F -12.0 °F -4.0 °F 69% 30.01 in 10.0 mi WNW 11.5 mph 17.3 mph N/A   Clear
8:55 AM 4.6 °F -10.4 °F -3.8 °F 68% 30.02 in 10.0 mi WNW 10.4 mph 20.7 mph N/A   Scattered Clouds
9:15 AM 5.0 °F -6.9 °F -3.3 °F 69% 30.02 in 10.0 mi NW 6.9 mph 20.7 mph N/A   Mostly Cloudy
9:35 AM 5.2 °F -9.8 °F -3.3 °F 68% 30.03 in 5.0 mi WNW 10.4 mph 18.4 mph N/A   Haze
9:55 AM 5.7 °F -9.9 °F -3.3 °F 66% 30.03 in 5.0 mi WNW 11.5 mph 19.6 mph N/A   Haze
10:15 AM 6.1 °F -6.8 °F -2.6 °F 68% 30.03 in 2.5 mi WNW 8.1 mph 18.4 mph N/A   Haze
10:35 AM 7.5 °F -6.9 °F -2.4 °F 64% 30.04 in 7.0 mi West 10.4 mph - N/A   Overcast
10:55 AM 7.3 °F -5.2 °F -3.5 °F 61% 30.04 in 7.0 mi NW 8.1 mph 20.7 mph N/A   Mostly Cloudy
11:15 AM 7.7 °F -5.8 °F -2.4 °F 63% 30.05 in 4.0 mi NW 9.2 mph - N/A   Haze
11:35 AM 8.1 °F -7.7 °F -2.2 °F 63% 30.05 in 4.0 mi West 12.7 mph 18.4 mph N/A   Haze
11:55 AM 8.4 °F -6.5 °F -2.0 °F 63% 30.05 in 5.0 mi NW 11.5 mph 18.4 mph N/A   Haze
12:15 PM 9.3 °F -1.7 °F -1.8 °F 61% 30.05 in 7.0 mi NW 6.9 mph 17.3 mph N/A   Overcast
12:35 PM 8.6 °F -3.7 °F -2.2 °F 62% 30.06 in 10.0 mi West 8.1 mph - N/A   Overcast
12:55 PM 9.0 °F -3.2 °F -2.2 °F 61% 30.06 in 10.0 mi WNW 8.1 mph 18.4 mph N/A   Mostly Cloudy
1:15 PM 10.0 °F -2.9 °F -1.5 °F 60% 30.07 in 10.0 mi WNW 9.2 mph - N/A   Overcast
1:35 PM 10.6 °F -0.2 °F -1.5 °F 58% 30.07 in 10.0 mi WNW 6.9 mph - N/A   Mostly Cloudy
1:55 PM 10.4 °F -0.4 °F -1.1 °F 60% 30.07 in 10.0 mi NW 6.9 mph 10.4 mph N/A   Mostly Cloudy
2:15 PM 10.6 °F -1.3 °F -1.1 °F 59% 30.07 in 10.0 mi WNW 8.1 mph 16.1 mph N/A   Mostly Cloudy
2:35 PM 10.9 °F -0.8 °F -0.8 °F 59% 30.07 in 10.0 mi NNW 8.1 mph - N/A   Mostly Cloudy
2:55 PM 11.3 °F -0.4 °F -0.4 °F 59% 30.07 in 10.0 mi NW 8.1 mph - N/A   Mostly Cloudy
3:15 PM 11.3 °F -1.3 °F -0.0 °F 60% 30.06 in 10.0 mi NNW 9.2 mph - N/A   Overcast
3:35 PM 12.2 °F 0.7 °F 0.7 °F 60% 30.06 in 10.0 mi NNW 8.1 mph - N/A   Overcast
3:55 PM 12.7 °F 2.4 °F 0.7 °F 59% 30.06 in 10.0 mi NNW 6.9 mph - N/A   Mostly Cloudy
4:15 PM 13.1 °F 2.8 °F 0.9 °F 58% 30.06 in 10.0 mi WNW 6.9 mph - N/A   Scattered Clouds
4:35 PM 12.7 °F 1.4 °F 0.7 °F 59% 30.08 in 10.0 mi NW 8.1 mph - N/A   Scattered Clouds
4:55 PM 11.8 °F 2.5 °F 0.5 °F 60% 30.08 in 10.0 mi WNW 5.8 mph - N/A   Clear
5:15 PM 11.3 °F 3.3 °F 0.5 °F 62% 30.08 in 10.0 mi NW 4.6 mph - N/A   Clear
5:35 PM 10.0 °F - 0.3 °F 65% 30.08 in 10.0 mi Calm Calm - N/A   Clear
5:55 PM 8.4 °F 1.8 °F 0.1 °F 69% 30.08 in 10.0 mi NW 3.5 mph - N/A   Clear
6:15 PM 5.0 °F -2.1 °F -1.1 °F 76% 30.09 in 10.0 mi WNW 3.5 mph - N/A   Clear
6:35 PM 6.3 °F -0.7 °F 0.1 °F 76% 30.10 in 10.0 mi WNW 3.5 mph - N/A   Clear
6:55 PM 4.8 °F - -1.3 °F 76% 30.09 in 10.0 mi Calm Calm - N/A   Clear
7:15 PM -0.9 °F - -4.4 °F 85% 30.08 in 10.0 mi Calm Calm - N/A   Clear
7:35 PM -3.6 °F - -6.3 °F 88% 30.08 in 10.0 mi Calm Calm - N/A   Clear
7:55 PM -5.4 °F - -9.0 °F 84% 30.08 in 10.0 mi Calm Calm - N/A   Clear
8:15 PM -6.7 °F - -10.7 °F 83% 30.08 in 10.0 mi Calm Calm - N/A   Clear
8:35 PM -7.4 °F - -11.7 °F 81% 30.08 in 10.0 mi Calm Calm - N/A   Clear
8:55 PM -9.9 °F - -14.8 °F 79% 30.08 in 10.0 mi Calm Calm - N/A   Clear
9:15 PM -8.7 °F - -13.5 °F 79% 30.08 in 10.0 mi Calm Calm - N/A   Clear
9:35 PM -11.2 °F - -16.1 °F 79% 30.08 in 10.0 mi Calm Calm - N/A   Clear
9:55 PM -11.4 °F - -16.2 °F 79% 30.08 in 10.0 mi Calm Calm - N/A   Clear
10:15 PM -10.5 °F -19.8 °F -15.3 °F 79% 30.08 in 10.0 mi West 3.5 mph - N/A   Mostly Cloudy
10:35 PM -9.4 °F -18.6 °F -14.4 °F 78% 30.08 in 10.0 mi West 3.5 mph - N/A   Overcast
10:55 PM -4.0 °F -14.6 °F -7.8 °F 84% 30.08 in 10.0 mi WNW 4.6 mph - N/A   Overcast
11:15 PM 1.0 °F -8.7 °F -3.8 °F 80% 30.08 in 10.0 mi WNW 4.6 mph - N/A   Overcast
11:35 PM 2.7 °F -4.8 °F -2.9 °F 78% 30.08 in 10.0 mi WNW 3.5 mph - N/A   Mostly Cloudy
11:55 PM 3.0 °F -6.4 °F -3.3 °F 75% 30.07 in 10.0 mi West 4.6 mph - N/A   Mostly Cloudy